[[{"header":{"parameterUnit":"m.s-1","parameterCategory":1,"la1":30.2991,"la2":30.254,"lo1":-89.0895,"lo2":-89.0444,"dy":0.0017,"dx":0.0017,"nx":28,"ny":28,"refTime":"2024-10-01T21:00:00:Z","depth":0,"parameterNumber":2,"parameterNumberName":"U-component_of_WINDS"},"data":[0,0,0,0,0,0,0,0,0,0,0,0,0,0,0,0,0,0,0,0,0,0,0,0,0,0,0,0,0,0,0,0,0,0,0,0,0,0,0,0,0,0,0,0,0,0,0,0,0,0,0,0,0,0,0,0,0,0,-2.0719,-2.0719,0,-2.0793,-2.0794,-2.0795,-2.075,-2.0748,-2.0746,-2.0744,-2.0822,-2.0826,-2.083,0,0,0,0,0,0,0,0,0,0,0,0,0,-2.0538,-2.0542,-2.0719,-2.072,-2.072,-2.0793,-2.0794,-2.0795,-2.0751,-2.0748,-2.0745,-2.0743,-2.0821,-2.0826,-2.0831,0,0,0,0,0,0,0,0,0,0,0,0,0,-2.0615,-2.0543,-2.0718,-2.0707,-2.0707,-2.0793,-2.0794,-2.0796,-2.0751,-2.0748,-2.0745,-2.0742,-2.0819,-2.0825,-2.0831,-2.0934,0,0,-2.085,-2.0853,0,0,0,0,0,0,0,0,-2.0611,-2.0622,-2.0708,-2.0708,-2.0708,-2.0759,-2.0759,-2.0842,-2.0752,-2.0734,-2.0744,-2.074,-2.0804,-2.0811,-2.0832,-2.0937,-2.0941,-2.085,-2.0854,-2.0857,-2.0859,0,0,0,0,0,0,0,-2.0606,-2.0618,-2.0748,-2.0709,-2.0709,-2.0698,-2.0706,-2.0775,-2.0786,-2.0736,-2.0732,-2.0742,-2.0803,-2.0826,-2.0834,-2.0942,-2.085,-2.0856,-2.086,-2.0862,-2.1134,-2.1138,0,0,0,0,0,0,-2.0601,-2.0614,-2.0746,-2.075,-2.065,-2.0704,-2.0712,-2.0746,-2.0785,-2.0788,-2.0744,-2.0739,-2.0818,-2.0827,-2.0836,-2.0958,-2.0857,-2.0863,-2.0866,-2.1131,-2.1135,-2.1139,0,0,0,0,0,0,-2.0597,-2.0613,-2.0743,-2.0682,-2.0697,-2.0711,-2.0749,-2.0749,-2.0772,-2.0792,-2.0794,-2.0766,-2.0815,-2.0828,-2.091,-2.096,-2.0865,-2.0871,-2.1126,-2.1132,-2.1137,-2.1204,0,0,0,0,0,0,-2.0592,-2.0612,-2.0651,-2.0683,-2.0701,-2.0815,-2.0752,-2.0753,-2.0783,-2.0777,-2.0813,-2.0816,-2.0814,-2.0901,-2.0916,-2.0967,-2.0876,-2.1122,-2.1129,-2.1135,-2.1197,-2.1211,-2.1222,0,0,0,0,0,-2.0586,-2.0667,-2.0653,-2.0669,-2.075,-2.0818,-2.0828,-2.0824,-2.0787,-2.0826,-2.0839,-2.0815,-2.0952,-2.0909,-2.0926,-2.098,-2.1119,-2.1127,-2.1135,-2.1191,-2.1208,-2.1222,0,0,0,0,0,0,-2.0642,-2.0671,-2.0656,-2.075,-2.0782,-2.081,-2.0859,-2.0841,-2.0885,-2.0877,-2.087,-2.0879,-2.0964,-2.098,-2.0932,-2.1081,-2.103,-2.1042,-2.1067,-2.1083,-2.1096,-2.109,-2.0881,0,0,0,0,0,-2.0665,-2.0718,-2.0741,-2.0822,-2.0838,-2.0846,-2.0876,-2.0869,-2.0902,-2.0916,-2.0934,-2.0967,-2.1018,-2.1052,-2.1099,-2.1199,-2.1206,-2.1245,-2.1257,-2.1267,-2.1278,-2.1331,-2.1348,-2.1165,-2.1165,-2.1165,0,0,-2.0714,-2.0737,-2.077,-2.0833,-2.0857,-2.0912,-2.0858,-2.0918,-2.0959,-2.0925,-2.1003,-2.1018,-2.1054,-2.1145,-2.1187,-2.1162,-2.133,-2.1278,-2.1286,-2.129,-2.1341,-2.1358,-2.1374,-2.117,-2.1169,-2.1169,0,0,-2.0831,-2.0853,-2.0923,-2.0947,-2.0984,-2.0988,-2.1005,-2.1036,-2.1044,-2.1122,-2.1098,-2.1146,-2.1234,-2.126,-2.1286,-2.1412,-2.1391,-2.1427,-2.1494,-2.1545,-2.156,-2.1573,-2.1617,-2.1633,-2.1437,-2.1438,-2.1438,0,-2.0887,-2.0968,-2.0961,-2.1023,-2.1051,-2.1022,-2.1092,-2.1117,-2.1167,-2.1188,-2.1159,-2.1267,-2.129,-2.1386,-2.1417,-2.1438,-2.1457,-2.1423,-2.1558,-2.1571,-2.1583,-2.1625,-2.1642,-2.1442,-2.1441,-2.1441,-2.144,0,-2.1035,-2.1092,-2.1143,-2.1192,-2.1226,-2.1292,-2.1295,-2.133,-2.1321,-2.1329,-2.1408,-2.1434,-2.1486,-2.1509,-2.1501,-2.1604,-2.1587,-2.1559,-2.1507,-2.1605,-2.1644,-2.166,-2.1448,-2.1446,-2.1445,-2.1444,0,0,-2.119,-2.1232,-2.1252,-2.1273,-2.131,-2.1354,-2.1419,-2.1469,-2.1499,-2.1535,-2.1589,-2.1663,-2.1636,-2.1665,-2.1659,-2.1705,-2.1802,-2.167,-2.1671,-2.1694,-2.1917,-2.1938,-2.1957,-2.1788,-2.1792,-2.1794,-2.1914,0,-2.1308,-2.142,-2.1415,-2.152,-2.1572,-2.1544,-2.16,-2.163,-2.1639,-2.1684,-2.1694,-2.1747,-2.1708,-2.1725,-2.1769,-2.1781,-2.1847,-2.1772,-2.1838,-2.1841,-2.183,-2.1978,-2.2,-2.2112,-2.1929,-2.1932,-2.1934,0,-2.1461,-2.1501,-2.1611,-2.164,-2.1661,-2.1712,-2.1757,-2.1801,-2.1833,-2.1837,-2.1868,-2.1855,-2.192,-2.1867,-2.1957,-2.1906,-2.1933,-2.1943,-2.1947,-2.1953,-2.1893,-2.1987,-2.2148,-2.2164,-2.1958,-2.1956,-2.1955,0,-2.1562,-2.1644,-2.1719,-2.1738,-2.1774,-2.181,-2.1827,-2.1856,-2.1887,-2.1926,-2.1946,-2.1993,-2.2019,-2.2056,-2.2055,-2.2017,-2.2146,-2.2093,-2.215,-2.215,-2.2179,-2.2177,-2.2346,-2.2197,-2.2197,-2.2196,-2.2196,0,-2.1695,-2.1763,-2.1765,-2.1812,-2.1887,-2.1881,-2.1955,-2.1969,-2.1995,-2.2043,-2.2023,-2.207,-2.2067,-2.2114,-2.2114,-2.2188,-2.22,-2.2204,-2.2204,-2.2206,-2.2205,-2.2223,-2.2215,-2.2201,-2.22,-2.2199,-2.2198,0,-2.182,-2.1825,-2.1905,-2.1932,-2.1941,-2.1995,-2.2018,-2.2063,-2.2069,-2.2131,-2.2145,-2.2156,-2.221,-2.2214,-2.2277,-2.2277,-2.2366,-2.2357,-2.2355,-2.2353,-2.241,-2.2405,-2.2596,-2.262,-2.2456,-2.2458,-2.2459,0,-2.1904,-2.1956,-2.1988,-2.2019,-2.2038,-2.2088,-2.2118,-2.2114,-2.2147,-2.2187,-2.2227,-2.2278,-2.232,-2.2407,-2.2421,-2.2469,-2.246,-2.2524,-2.2468,-2.2468,-2.2461,-2.2457,-2.2462,-2.2535,-2.2537,-2.2538,-2.254,0,-2.2053,-2.2052,-2.2097,-2.2142,-2.2178,-2.2214,-2.2247,-2.2274,-2.2273,-2.2311,-2.2365,-2.2397,-2.2461,-2.2513,-2.2559,-2.2576,-2.2558,-2.2557,-2.2573,-2.2576,-2.2572,-2.2574,-2.2385,-2.2553,-2.2552,-2.2551,-2.255,-2.2549,-2.216,-2.2204,-2.2233,-2.2283,-2.2307,-2.2339,-2.2381,-2.2393,-2.2438,-2.2489,-2.2484,-2.2544,-2.2575,-2.2635,-2.2656,-2.2704,-2.2682,-2.2705,-2.2711,-2.2716,-2.2722,-2.2565,-2.2712,-2.2712,-2.2711,-2.2711,-2.2711,0,-2.2307,-2.2324,-2.237,-2.2416,-2.2456,-2.2434,-2.247,-2.2504,-2.2557,-2.2587,-2.2628,-2.269,-2.274,-2.2757,-2.2806,-2.284,-2.2833,-2.2853,-2.285,-2.2854,-2.2739,-2.272,-2.2858,-2.2858,-2.2858,-2.2858,-2.2858,-2.2858,-2.2388,-2.2461,-2.2464,-2.2548,-2.2565,-2.2624,-2.2646,-2.2674,-2.2698,-2.2768,-2.2809,-2.282,-2.2845,-2.2895,-2.2939,-2.2943,-2.2962,-2.2985,-2.2986,-2.2877,-2.2862,-2.2848,-2.2831,-2.299,-2.299,-2.3097,-2.3098,-2.3099]},{"header":{"parameterUnit":"m.s-1","parameterCategory":1,"la1":30.2991,"la2":30.254,"lo1":-89.0895,"lo2":-89.0444,"dy":0.0017,"dx":0.0017,"nx":28,"ny":28,"refTime":"2024-10-01T21:00:00:Z","depth":0,"parameterNumber":3,"parameterNumberName":"V-component_of_WINDS"},"data":[0,0,0,0,0,0,0,0,0,0,0,0,0,0,0,0,0,0,0,0,0,0,0,0,0,0,0,0,0,0,0,0,0,0,0,0,0,0,0,0,0,0,0,0,0,0,0,0,0,0,0,0,0,0,0,0,0,0,-2.7829,-2.783,0,-2.7838,-2.7838,-2.7838,-2.7804,-2.7803,-2.7802,-2.7801,-2.7809,-2.781,-2.7811,0,0,0,0,0,0,0,0,0,0,0,0,0,-2.7782,-2.7783,-2.7829,-2.783,-2.783,-2.7838,-2.7838,-2.7838,-2.7804,-2.7803,-2.7802,-2.78,-2.7808,-2.781,-2.7811,0,0,0,0,0,0,0,0,0,0,0,0,0,-2.7798,-2.7784,-2.7829,-2.7814,-2.7812,-2.7838,-2.7838,-2.7838,-2.7804,-2.7803,-2.7801,-2.78,-2.7808,-2.7809,-2.7811,-2.7852,0,0,-2.7816,-2.7817,0,0,0,0,0,0,0,0,-2.7797,-2.78,-2.7816,-2.7815,-2.7813,-2.7818,-2.7824,-2.7843,-2.7805,-2.7807,-2.7801,-2.7799,-2.7813,-2.7814,-2.7819,-2.7852,-2.7853,-2.7817,-2.7818,-2.7818,-2.7819,0,0,0,0,0,0,0,-2.7796,-2.7799,-2.7833,-2.7816,-2.7815,-2.7806,-2.7806,-2.7827,-2.7818,-2.7807,-2.7805,-2.7806,-2.7812,-2.7817,-2.7819,-2.7853,-2.7816,-2.7818,-2.7819,-2.782,-2.7918,-2.792,0,0,0,0,0,0,-2.7797,-2.7798,-2.7832,-2.7833,-2.7801,-2.7808,-2.7808,-2.7818,-2.7818,-2.7817,-2.7807,-2.7804,-2.7815,-2.7817,-2.7819,-2.7865,-2.7818,-2.782,-2.7821,-2.7917,-2.7918,-2.792,0,0,0,0,0,0,-2.7796,-2.7801,-2.7832,-2.7815,-2.7818,-2.781,-2.7821,-2.7819,-2.7825,-2.7818,-2.7817,-2.7815,-2.7814,-2.7817,-2.7844,-2.7865,-2.7821,-2.7822,-2.7915,-2.7917,-2.7919,-2.796,0,0,0,0,0,0,-2.7795,-2.78,-2.7816,-2.7816,-2.7819,-2.7857,-2.7823,-2.782,-2.7828,-2.7824,-2.7825,-2.7823,-2.7813,-2.7841,-2.7845,-2.7867,-2.7824,-2.7913,-2.7916,-2.7919,-2.7956,-2.7963,-2.7969,0,0,0,0,0,-2.7794,-2.7827,-2.7817,-2.7822,-2.7839,-2.7858,-2.786,-2.7848,-2.783,-2.7845,-2.7841,-2.7823,-2.7863,-2.7844,-2.7849,-2.7871,-2.7911,-2.7915,-2.7918,-2.7953,-2.7962,-2.7969,0,0,0,0,0,0,-2.7831,-2.7827,-2.7816,-2.7851,-2.7855,-2.7853,-2.7872,-2.7858,-2.7867,-2.7863,-2.7848,-2.7848,-2.7877,-2.7877,-2.7857,-2.791,-2.7884,-2.7888,-2.7909,-2.7917,-2.7923,-2.7922,-2.7825,0,0,0,0,0,-2.7843,-2.7859,-2.7855,-2.7886,-2.7889,-2.788,-2.7888,-2.7878,-2.7882,-2.7884,-2.7882,-2.7886,-2.7899,-2.7908,-2.792,-2.7956,-2.7955,-2.7974,-2.798,-2.7985,-2.7989,-2.8007,-2.8015,-2.7932,-2.7932,-2.7932,0,0,-2.7868,-2.7868,-2.788,-2.7894,-2.7896,-2.7913,-2.7882,-2.7901,-2.7913,-2.7887,-2.7912,-2.791,-2.7914,-2.7946,-2.7959,-2.7946,-2.8012,-2.799,-2.7994,-2.7995,-2.8011,-2.8019,-2.8026,-2.7934,-2.7934,-2.7934,0,0,-2.7923,-2.7925,-2.795,-2.7953,-2.7957,-2.7951,-2.7957,-2.7957,-2.7955,-2.798,-2.796,-2.7974,-2.7997,-2.8,-2.8005,-2.806,-2.8043,-2.8064,-2.8096,-2.8114,-2.8121,-2.8126,-2.8145,-2.8152,-2.8068,-2.8068,-2.8068,0,-2.7954,-2.7978,-2.7965,-2.7985,-2.7992,-2.7969,-2.7994,-2.7997,-2.8005,-2.8009,-2.7994,-2.8022,-2.8023,-2.8055,-2.8068,-2.8073,-2.8078,-2.8063,-2.8121,-2.8126,-2.8131,-2.8149,-2.8156,-2.8071,-2.807,-2.807,-2.807,0,-2.8015,-2.8033,-2.8053,-2.806,-2.8069,-2.8092,-2.8081,-2.8091,-2.8081,-2.8076,-2.8101,-2.8101,-2.8112,-2.8119,-2.8109,-2.8149,-2.814,-2.8124,-2.8097,-2.8142,-2.8158,-2.8164,-2.8074,-2.8073,-2.8072,-2.8072,0,0,-2.8093,-2.8093,-2.81,-2.8103,-2.8105,-2.8118,-2.8139,-2.815,-2.8158,-2.8165,-2.8181,-2.8201,-2.8185,-2.8191,-2.8181,-2.8197,-2.8238,-2.8178,-2.8177,-2.8188,-2.8281,-2.8292,-2.83,-2.8228,-2.8229,-2.823,-2.828,0,-2.8145,-2.8181,-2.817,-2.8206,-2.8221,-2.82,-2.8218,-2.8221,-2.8217,-2.8229,-2.8224,-2.8238,-2.8217,-2.822,-2.8235,-2.823,-2.8257,-2.8227,-2.8242,-2.8243,-2.8241,-2.8309,-2.8321,-2.8368,-2.8286,-2.8287,-2.8288,0,-2.8211,-2.8219,-2.8257,-2.8256,-2.8262,-2.8278,-2.8287,-2.8299,-2.8301,-2.8297,-2.8303,-2.829,-2.831,-2.8284,-2.831,-2.829,-2.8296,-2.8295,-2.8296,-2.8296,-2.8267,-2.8309,-2.8382,-2.8389,-2.8298,-2.8297,-2.8296,0,-2.8262,-2.8283,-2.8307,-2.8311,-2.831,-2.8322,-2.8323,-2.8324,-2.8331,-2.8338,-2.8342,-2.8352,-2.8357,-2.8365,-2.8354,-2.8336,-2.8382,-2.8355,-2.8378,-2.8378,-2.8387,-2.8387,-2.8462,-2.8394,-2.8394,-2.8393,-2.8393,0,-2.8321,-2.8344,-2.833,-2.8345,-2.8371,-2.8357,-2.8383,-2.8381,-2.8382,-2.8396,-2.8378,-2.8392,-2.8377,-2.8389,-2.8381,-2.8404,-2.8406,-2.8403,-2.84,-2.8404,-2.8404,-2.8406,-2.8402,-2.8395,-2.8395,-2.8395,-2.8394,0,-2.8382,-2.8373,-2.8399,-2.8396,-2.8396,-2.8415,-2.8412,-2.8426,-2.8421,-2.8438,-2.8442,-2.8433,-2.8446,-2.8437,-2.845,-2.8444,-2.8474,-2.8467,-2.8472,-2.847,-2.8493,-2.849,-2.8571,-2.858,-2.8508,-2.8508,-2.8509,0,-2.8419,-2.8437,-2.8436,-2.8444,-2.8445,-2.8458,-2.8465,-2.8452,-2.846,-2.8464,-2.8477,-2.8489,-2.8497,-2.8519,-2.8513,-2.8523,-2.8516,-2.8543,-2.8517,-2.852,-2.8514,-2.8513,-2.8514,-2.8548,-2.8549,-2.855,-2.855,0,-2.8486,-2.848,-2.8491,-2.85,-2.8508,-2.8515,-2.852,-2.8527,-2.8514,-2.8524,-2.8537,-2.8543,-2.8556,-2.8567,-2.8575,-2.8575,-2.856,-2.8559,-2.8564,-2.8567,-2.8569,-2.8567,-2.8485,-2.8557,-2.8556,-2.8556,-2.8555,-2.8555,-2.8535,-2.8549,-2.855,-2.8562,-2.8564,-2.8569,-2.8581,-2.8578,-2.8588,-2.8598,-2.859,-2.8605,-2.8606,-2.8615,-2.8617,-2.8628,-2.8617,-2.8625,-2.8627,-2.8629,-2.8632,-2.8569,-2.863,-2.863,-2.863,-2.8629,-2.8629,0,-2.8599,-2.8599,-2.861,-2.8617,-2.8626,-2.8612,-2.8617,-2.8625,-2.8639,-2.8642,-2.865,-2.8665,-2.8675,-2.8671,-2.868,-2.869,-2.8684,-2.8693,-2.8691,-2.8691,-2.8642,-2.8636,-2.8698,-2.8698,-2.8698,-2.8698,-2.8698,-2.8698,-2.8634,-2.8656,-2.8651,-2.8674,-2.8674,-2.8688,-2.8692,-2.8696,-2.8698,-2.8715,-2.8724,-2.8721,-2.8721,-2.873,-2.8739,-2.8737,-2.8741,-2.8752,-2.8748,-2.8702,-2.8695,-2.8688,-2.8682,-2.8753,-2.8753,-2.8796,-2.8796,-2.8797]}]]